RH
5 5 5 5 5 4 4 4 4 4 3 3 3 3 3 3 2 2 3 2 2 2 2 2 2 2 2 2 2 2 2 2 2 2 2 1 3 4 5 7 7 8 9 10 11 13 17 24 30 29 29 29 28 26 24 28 33 35 35 41 51 57 68 78 84 85 79 82 85 84 83 77 78 77 67 62 64 60 60 57 43 40 41 45 56 59 62 61
6 6 6 5 5 5 5 5 5 5 4 4 4 4 3 3 3 2 3 2 2 2 2 2 2 2 2 2 1 1 2 2 2 2 2 1 2 3 3 5 5 6 6 7 7 7 9 13 19 22 25 27 25 25 23 24 30 36 35 40 51 55 71 83 85 88 84 85 84 77 72 71 77 75 68 66 64 62 63 62 52 41 36 40 46 50 58 61
7 7 7 6 6 6 5 5 5 5 5 5 5 4 4 4 3 3 3 3 3 2 2 2 2 2 2 2 2 2 2 1 2 2 2 2 2 2 3 3 4 5 5 6 6 6 6 7 9 13 18 21 22 24 23 25 30 36 36 37 45 52 72 83 83 87 83 85 92 82 66 67 77 70 65 70 64 67 75 69 60 50 37 36 38 40 51 60
9 9 8 8 7 7 6 6 6 6 6 6 6 6 5 4 4 4 3 3 3 2 2 2 2 2 2 2 2 2 2 2 2 2 2 2 2 2 2 3 3 4 5 5 6 5 5 5 6 7 9 12 17 18 19 27 29 31 38 39 41 48 66 80 84 90 82 79 87 84 71 72 78 66 63 70 65 68 76 69 63 58 46 37 36 37 46 57
10 11 10 10 9 8 8 7 7 7 7 7 7 7 6 6 5 4 4 4 3 3 2 2 2 2 2 2 2 2 2 2 2 2 2 2 2 2 2 2 2 3 4 5 5 5 5 5 5 5 6 7 10 12 17 25 23 23 33 40 41 42 60 81 87 90 86 78 77 78 75 75 77 73 71 72 63 56 56 61 63 60 51 39 32 35 44 54
8 9 10 10 11 11 10 9 9 8 8 8 7 8 7 7 7 6 5 5 4 3 3 2 2 3 3 2 2 2 2 2 2 2 2 2 2 2 2 2 2 3 3 4 4 4 4 5 6 6 6 6 6 12 19 21 20 19 23 33 42 43 55 76 85 89 90 80 75 80 76 72 79 75 73 75 65 54 49 55 62 56 49 42 34 33 41 51
5 5 6 7 8 10 10 11 10 10 9 8 8 8 8 8 8 8 7 6 5 4 4 3 2 2 3 2 2 2 2 2 2 2 2 2 2 2 2 2 2 2 2 4 3 3 3 3 5 7 7 6 6 13 19 19 18 19 22 30 42 49 51 61 79 92 91 80 79 88 79 71 79 68 62 74 65 54 53 56 60 53 45 43 38 35 39 48
4 4 4 5 5 6 7 8 10 11 11 10 10 9 8 8 8 9 9 8 7 6 5 4 3 3 2 3 3 3 3 2 2 3 2 2 2 2 2 2 2 2 2 3 3 3 3 3 4 7 8 7 7 13 18 18 16 17 26 33 42 54 54 52 67 81 85 80 76 84 80 72 79 71 61 68 64 55 56 56 56 50 41 38 37 37 39 45
4 4 4 4 4 4 4 5 6 7 9 10 11 11 10 9 9 9 9 9 9 8 7 5 5 4 3 3 2 3 3 2 3 3 2 2 2 2 2 2 2 2 2 2 3 3 2 3 3 6 8 8 8 12 15 15 15 18 27 33 37 51 58 57 61 70 80 81 73 74 77 74 79 81 69 61 61 61 58 55 54 48 39 34 33 34 36 42
4 4 4 4 4 4 4 4 4 4 5 7 9 10 11 11 10 9 9 9 10 10 8 7 7 5 4 3 3 4 3 2 3 3 3 2 2 2 2 2 2 2 2 2 3 3 3 3 4 6 8 9 8 10 14 14 15 21 28 30 31 42 54 59 63 69 76 79 78 75 75 76 80 86 77 66 70 68 57 54 58 56 44 35 33 30 28 31
4 4 4 4 4 4 4 4 4 4 4 4 5 7 9 10 11 10 10 9 10 10 10 9 8 7 6 5 5 5 3 2 3 3 3 3 2 2 2 2 2 2 2 2 2 3 3 3 4 5 7 9 9 9 12 15 17 19 26 32 34 40 48 54 58 65 74 80 82 76 73 82 92 92 75 65 75 71 57 55 60 63 52 41 37 30 24 23
4 4 4 4 4 4 4 4 4 4 4 4 4 4 5 7 8 10 11 10 10 10 11 10 9 9 7 8 9 5 2 3 3 4 4 3 3 3 3 2 2 2 2 2 2 2 3 3 3 4 6 9 9 9 11 15 19 17 20 34 43 43 42 44 46 54 70 80 79 73 70 78 94 99 79 61 69 71 62 55 54 60 56 46 41 34 26 22
4 4 4 4 4 4 4 4 4 4 4 3 3 4 4 4 5 6 8 10 11 11 11 11 10 10 8 12 13 6 3 4 3 5 5 4 4 3 3 2 2 2 2 2 2 2 2 3 3 3 5 8 8 9 11 17 22 22 17 25 40 41 36 39 43 48 59 70 77 78 75 77 91 102 83 59 63 76 72 57 53 63 61 51 47 41 31 25
5 4 4 4 4 3 4 3 4 4 4 4 4 3 3 4 4 4 5 7 9 10 11 11 11 11 10 15 16 7 6 5 3 5 5 5 4 3 4 3 3 2 2 2 2 2 2 2 2 3 3 5 8 7 10 14 17 21 18 16 25 29 34 43 47 46 51 65 78 86 83 80 94 101 86 68 60 68 70 59 59 71 70 61 56 50 38 30
6 6 6 5 5 4 4 4 3 3 3 3 4 4 4 4 3 3 4 4 5 7 9 10 11 10 11 17 16 9 9 9 7 6 5 6 5 4 4 4 3 3 3 2 2 2 2 3 2 2 3 3 6 6 8 10 9 13 14 13 15 19 30 41 41 37 46 66 76 80 79 75 88 98 98 90 68 61 68 61 61 72 75 68 60 55 45 37
9 9 8 8 7 6 6 5 4 4 4 3 3 3 3 3 4 3 3 3 4 4 6 8 10 10 12 17 17 13 13 13 10 7 5 6 5 5 4 4 4 3 3 2 2 2 2 3 2 2 3 2 4 4 6 7 6 9 11 12 14 16 26 35 35 30 40 66 75 70 71 77 90 98 100 93 69 64 71 64 64 70 71 64 55 54 48 38
10 10 9 9 9 9 8 7 7 6 5 4 4 3 3 3 3 3 3 3 3 3 4 5 6 9 11 15 17 16 15 15 12 8 8 8 6 6 5 4 5 3 3 3 2 3 2 2 2 2 3 2 3 3 4 4 3 6 8 10 13 15 24 33 38 33 33 58 81 78 66 75 92 94 97 90 70 67 72 72 76 72 67 63 57 56 53 44
9 9 9 9 9 9 9 8 8 8 7 7 6 5 4 3 3 3 4 3 3 3 3 4 4 6 9 12 15 17 16 16 15 12 11 11 9 7 6 4 5 4 4 3 3 3 2 2 2 2 2 2 3 2 3 2 3 5 5 8 12 15 21 29 37 44 43 52 83 96 77 73 89 91 93 89 77 73 74 79 81 72 67 68 62 56 54 52
9 9 9 9 9 9 9 9 9 8 8 8 7 7 6 5 4 3 3 3 3 3 3 3 3 4 5 8 12 16 17 17 17 15 13 15 14 10 7 5 5 5 4 3 4 3 3 3 2 2 2 2 2 2 2 2 3 5 6 8 11 15 19 25 37 55 67 65 76 94 86 80 91 98 95 82 73 73 71 76 81 75 71 69 63 56 53 52
9 9 9 9 9 9 9 9 9 8 8 8 7 7 7 6 6 4 3 3 3 3 3 3 3 3 3 5 8 12 15 16 17 16 15 17 18 15 10 7 5 5 5 4 4 3 3 3 2 2 2 2 2 2 3 3 3 4 6 7 7 11 16 24 37 55 76 79 71 76 82 84 92 98 92 71 62 68 68 73 84 82 74 72 68 59 54 52
9 8 9 8 9 9 9 8 8 8 8 7 7 6 7 6 6 6 4 4 3 2 3 3 3 3 3 4 4 7 11 14 16 17 17 16 17 16 12 8 6 6 6 5 5 4 3 2 2 2 2 3 2 2 3 2 3 3 4 5 4 8 12 18 34 55 76 80 75 76 75 78 88 94 87 66 58 67 65 66 77 77 71 75 73 63 61 58
8 8 8 7 8 8 8 8 8 8 7 7 7 6 6 6 6 6 5 5 6 5 3 2 3 3 3 4 3 4 6 10 14 17 18 17 16 16 15 11 8 8 7 6 5 4 3 2 2 3 2 3 2 2 3 2 3 3 3 4 4 6 10 18 32 54 74 77 77 81 72 69 78 86 88 74 63 64 57 55 66 66 65 75 76 66 64 63
7 6 6 6 6 6 6 6 6 7 7 6 7 6 6 6 5 5 5 4 6 7 5 3 3 3 3 4 4 3 3 6 9 14 17 17 17 17 17 16 13 12 9 6 6 5 4 3 3 3 3 3 3 2 3 2 3 3 3 4 4 4 8 26 43 51 67 76 74 74 72 72 74 77 86 81 72 69 59 53 56 54 59 73 76 67 64 63
6 5 5 5 5 5 5 5 5 5 5 6 6 6 6 5 5 5 5 4 5 7 7 5 4 4 6 8 7 4 3 4 5 9 14 16 17 18 18 18 17 16 11 8 8 6 5 5 5 4 4 3 3 3 2 2 3 3 4 3 3 5 3 25 53 53 58 73 72 70 75 77 73 73 82 82 78 78 68 57 50 46 56 71 75 72 67 64
5 5 4 4 4 4 4 4 4 4 4 4 4 5 5 5 5 5 4 4 4 4 6 6 6 6 8 10 8 4 3 4 4 5 10 13 16 17 17 17 18 17 15 13 11 8 7 7 6 6 5 5 3 3 2 2 3 2 4 3 2 6 2 19 55 60 55 64 67 69 77 80 77 75 83 85 82 81 76 66 54 45 55 66 67 71 69 64
4 4 4 4 4 3 3 3 3 3 3 3 3 4 4 4 4 4 4 4 4 3 4 5 6 8 9 9 9 8 5 3 4 4 5 10 13 15 17 15 16 17 18 18 14 10 9 8 8 7 6 6 4 4 3 2 3 1 3 4 2 5 4 19 54 63 55 58 61 63 68 74 75 72 77 83 84 82 78 75 60 41 42 50 55 66 69 63
4 4 4 3 3 3 4 3 3 3 3 2 3 2 3 3 3 4 4 3 2 3 3 4 5 7 8 9 11 10 6 3 5 5 4 6 9 13 15 15 15 17 20 22 16 9 10 9 8 7 8 8 5 4 3 2 3 2 2 3 3 4 3 15 46 60 56 57 60 58 58 62 63 62 66 70 75 76 75 73 54 31 31 40 49 63 69 65
4 4 4 5 5 4 4 4 3 3 3 3 3 2 3 2 2 3 3 3 6 8 6 5 4 5 7 9 10 10 9 7 7 7 6 5 7 10 13 14 14 15 19 21 15 10 12 12 9 9 8 8 6 4 3 3 2 2 3 2 3 5 3 7 28 48 56 56 55 55 55 57 57 56 59 62 65 67 68 63 43 29 35 38 41 55 66 68
5 6 7 7 7 6 5 4 4 4 5 4 4 4 3 2 2 3 1 2 9 12 10 7 4 3 5 7 9 11 11 11 10 11 10 7 5 7 10 13 14 16 19 19 17 17 17 14 14 13 10 8 8 6 4 4 3 2 3 3 3 4 4 5 11 29 52 58 53 51 52 54 57 56 56 57 56 52 55 57 46 36 38 35 33 47 62 67
6 7 7 8 9 8 6 4 5 5 6 6 7 7 5 4 3 2 2 5 13 18 13 9 7 5 5 6 8 11 12 13 14 14 13 10 7 6 9 13 15 16 18 20 19 20 20 19 18 16 12 10 10 8 6 5 4 3 3 3 5 4 5 5 4 17 38 45 41 45 49 50 56 61 58 54 53 50 51 58 54 37 33 40 39 44 57 64
7 7 8 9 9 9 7 6 6 7 8 9 9 9 8 7 5 3 4 9 22 30 21 10 7 8 8 5 5 8 11 13 16 17 18 15 10 8 8 11 14 15 18 20 19 22 24 23 19 16 15 14 12 10 10 7 5 4 3 3 5 6 7 6 4 9 17 17 16 26 41 49 53 57 56 53 54 57 53 48 47 35 30 44 49 47 55 61
7 9 11 11 11 12 10 6 7 8 10 10 10 10 10 9 7 5 8 15 22 27 19 8 4 8 10 8 8 10 10 13 16 18 21 22 17 11 9 9 11 13 13 14 19 26 26 22 20 19 17 16 14 12 12 11 7 4 4 4 4 6 7 6 4 4 4 5 4 11 29 44 45 40 44 53 54 56 52 35 36 44 33 30 40 49 56 59
10 12 14 15 14 12 9 8 10 11 10 11 11 12 12 11 10 7 10 16 14 11 10 6 8 13 13 16 20 17 13 17 22 22 22 25 23 16 11 10 12 14 13 14 21 24 23 25 26 23 18 16 15 13 12 11 9 5 3 4 3 4 4 3 3 3 2 3 3 7 17 24 23 17 25 42 44 48 56 46 45 58 43 23 28 40 50 58
13 14 17 19 16 12 12 12 11 10 12 15 14 14 15 13 13 11 10 11 10 9 8 7 22 37 34 35 46 45 36 32 36 40 35 28 26 20 15 12 11 12 14 18 22 21 20 25 24 21 20 18 16 13 11 12 11 8 5 4 3 3 3 2 2 3 2 3 3 5 8 7 5 5 10 22 26 30 48 51 50 60 50 30 31 37 44 57
20 17 16 18 18 15 12 11 13 16 18 18 16 18 19 16 15 17 14 11 11 16 13 5 27 67 77 73 82 86 74 58 49 50 47 38 32 24 16 14 14 15 18 20 20 19 20 21 22 26 27 23 19 16 14 14 13 11 9 7 5 4 3 3 3 4 4 3 3 3 3 3 2 3 5 9 10 14 27 32 34 48 52 36 32 39 43 53
25 17 11 13 18 17 16 19 25 26 23 21 21 21 22 22 21 21 19 14 9 17 24 13 24 74 101 96 100 97 80 73 67 53 46 40 36 36 28 19 15 15 18 19 17 22 23 17 23 35 34 27 24 20 17 16 14 14 12 8 8 7 4 4 4 6 6 4 4 3 2 3 3 3 4 4 4 5 11 15 18 30 39 28 19 26 36 48
30 21 11 8 16 21 23 29 30 27 25 27 27 26 25 25 26 24 21 17 10 13 28 28 34 76 104 98 102 97 75 77 80 62 52 47 51 70 72 55 45 36 28 24 21 24 25 19 24 36 35 31 30 27 23 19 16 16 13 9 10 9 7 7 7 7 7 5 3 3 3 3 3 3 3 4 4 3 3 11 19 22 22 17 8 9 24 43
39 34 25 20 28 32 30 31 31 29 32 34 32 31 31 29 27 26 20 17 14 10 19 32 44 76 102 99 100 101 89 89 87 75 76 74 75 96 101 94 93 80 59 46 35 27 26 28 31 32 31 33 37 37 31 24 19 16 15 15 14 12 9 7 8 7 5 4 3 3 3 2 3 3 3 5 7 6 2 6 22 27 24 20 9 4 21 38
43 42 38 36 43 47 42 41 41 37 38 41 41 38 36 32 29 26 19 17 19 15 16 31 44 63 90 101 101 100 98 100 93 87 95 94 90 99 100 99 104 92 61 41 35 29 26 32 33 26 28 38 44 43 34 25 22 20 22 26 23 19 15 9 7 6 4 4 5 5 4 5 6 3 3 6 9 14 10 6 17 24 23 21 9 4 15 24
47 48 49 47 50 54 50 50 50 46 46 48 48 44 40 38 32 25 22 21 23 24 23 32 46 55 69 89 103 102 99 100 98 96 100 99 96 98 95 91 97 95 63 28 22 25 25 33 34 31 45 57 50 39 30 24 23 22 25 30 27 23 22 17 12 8 5 6 7 8 11 14 14 12 13 12 10 14 13 12 19 18 13 14 6 3 9 10
55 56 62 60 58 60 63 65 64 59 58 58 57 52 47 41 32 24 26 28 28 33 32 29 40 51 54 69 93 102 100 99 100 101 100 101 100 98 95 91 92 98 81 45 28 27 28 36 40 43 62 72 53 33 27 28 28 25 24 25 24 21 21 20 17 11 8 7 6 9 18 26 25 25 28 21 13 13 11 13 21 17 8 8 5 4 7 5
58 63 70 68 62 61 68 79 83 82 81 77 70 63 52 39 30 27 31 34 38 47 50 42 42 46 43 50 73 93 101 97 98 103 99 98 102 99 98 98 92 96 91 64 41 30 25 29 38 48 61 67 59 46 38 34 31 31 29 26 23 21 18 16 14 11 10 9 7 7 18 34 38 37 34 27 23 22 15 12 17 13 6 5 4 5 7 6
59 70 74 72 71 70 70 75 87 97 99 90 77 65 52 38 29 30 35 41 45 48 49 48 50 53 49 46 56 79 100 100 97 102 100 97 101 100 100 99 94 94 87 66 46 31 21 22 35 49 55 57 63 63 53 46 40 36 34 32 30 24 19 18 16 14 12 10 10 8 12 30 44 43 37 34 35 31 20 13 11 7 4 4 3 4 3 5
62 73 77 79 84 87 84 82 89 100 103 98 82 62 49 40 33 35 42 47 49 46 42 45 56 66 62 51 48 62 88 103 101 99 99 99 100 100 102 100 96 92 81 72 63 40 27 30 38 52 61 59 63 64 60 58 52 40 32 33 36 31 26 26 22 20 18 13 12 10 9 24 42 45 38 36 39 34 25 18 10 4 3 3 3 3 3 4
58 64 73 87 99 99 97 96 95 98 103 100 80 57 47 42 43 53 57 53 53 56 57 54 57 70 71 58 48 52 70 92 101 100 99 101 100 99 101 100 98 92 82 85 78 46 30 35 36 49 63 62 62 61 58 60 56 43 34 34 39 37 35 36 29 23 22 18 16 12 8 17 35 43 41 39 40 41 35 26 15 7 3 3 3 6 9 8
63 63 59 72 97 102 99 102 98 97 102 94 71 57 53 51 61 72 66 60 58 54 53 48 45 63 78 67 51 50 60 76 91 98 99 100 100 100 101 101 100 95 89 96 87 51 33 35 34 46 61 60 58 59 59 62 60 52 44 39 41 40 39 44 38 26 24 23 20 17 11 12 20 32 42 44 42 44 42 32 20 9 4 3 3 7 13 15
66 60 41 45 75 91 94 101 101 98 100 89 69 62 62 64 76 78 67 68 69 54 48 49 45 55 75 77 62 51 54 65 78 91 97 100 101 100 101 101 101 97 95 100 92 61 42 38 36 47 61 60 60 65 68 67 64 61 54 44 41 40 37 42 41 29 25 25 24 22 17 13 14 19 30 39 39 41 42 34 23 12 5 4 4 4 9 14
39 33 28 33 52 69 81 92 97 98 100 90 72 67 71 73 74 72 65 64 63 57 53 53 53 54 64 77 74 61 61 71 75 81 91 98 100 101 101 100 100 101 98 100 96 74 56 49 42 48 60 61 64 74 75 68 64 63 58 49 46 41 33 33 37 35 30 26 27 29 24 18 17 16 16 21 28 34 36 30 19 10 5 5 6 6 8 10
19 18 25 27 31 44 59 74 89 99 99 93 81 73 72 67 63 70 73 62 58 62 56 47 51 51 49 60 67 66 76 84 75 73 86 98 99 100 101 100 99 101 99 101 100 87 73 61 45 44 56 62 71 79 72 61 58 59 59 58 56 52 40 32 36 42 39 33 32 38 38 31 25 20 14 12 16 24 26 20 11 6 5 6 8 10 10 10
16 17 21 22 25 31 35 52 83 102 99 94 92 85 76 65 59 65 71 65 60 63 57 50 51 43 38 47 52 54 70 78 70 67 81 95 100 99 100 101 100 101 100 100 100 96 89 73 50 42 52 64 80 87 70 56 56 61 65 65 60 57 51 41 37 41 45 43 38 42 52 47 32 22 17 13 14 20 22 17 9 6 5 6 7 9 10 11
17 18 19 21 26 29 28 40 68 86 81 76 85 92 89 81 70 63 66 68 63 56 53 53 49 40 36 40 38 38 51 61 63 66 74 89 100 101 100 100 100 100 100 100 101 100 97 83 58 45 49 65 87 92 73 59 59 62 64 66 62 57 54 47 41 39 43 47 43 45 59 59 42 29 22 18 19 22 22 18 11 7 5 5 5 6 7 8
18 21 22 22 25 29 32 36 44 52 49 48 59 73 84 89 79 64 67 76 72 61 53 51 48 44 39 38 38 38 40 45 55 63 69 81 93 99 101 100 100 100 100 100 100 100 102 93 69 50 50 67 89 93 77 64 63 62 64 68 66 58 53 50 45 40 42 48 47 48 59 65 56 47 41 34 28 25 21 16 11 7 6 6 6 6 7 8
Wind_Speed
18 17 17 17 16 16 16 16 16 15 15 15 15 14 14 13 13 13 13 13 13 13 12 12 12 10 9 9 9 10 11 12 14 17 19 16 12 13 16 17 19 18 16 17 16 15 15 16 16 16 15 14 13 12 10 9 9 8 7 5 3 3 2 2 3 2 1 2 1 1 1 5 7 6 7 8 6 4 2 2 2 1 1 2 3 3 4 5
19 19 19 18 18 18 18 17 17 17 16 16 16 16 16 15 14 13 14 14 14 14 13 12 12 12 11 10 9 10 10 11 14 19 18 12 12 15 17 18 18 18 17 18 18 18 18 18 19 17 16 16 15 13 11 10 10 9 7 5 5 4 3 3 3 3 2 1 1 0 3 4 5 7 7 7 7 5 3 3 2 1 2 2 3 3 3 5
21 20 20 20 20 20 19 19 18 18 17 17 18 18 17 17 16 15 15 15 16 15 15 14 12 12 13 12 11 10 10 10 13 18 13 11 15 17 18 18 18 18 18 19 20 20 20 21 21 19 17 17 16 14 13 11 10 9 6 6 6 5 4 3 2 3 3 1 1 1 3 3 3 6 7 7 7 5 5 5 4 2 3 2 3 4 2 4
22 22 22 21 21 21 21 21 20 20 19 19 18 19 19 18 17 17 17 17 17 17 16 15 14 13 14 13 12 11 10 9 13 17 13 11 17 20 20 20 19 19 20 20 20 20 21 22 21 20 19 18 17 16 14 12 11 10 7 7 7 6 5 3 3 4 4 3 1 1 3 2 4 6 7 7 6 5 4 5 4 3 3 3 3 4 3 4
22 22 22 22 23 23 23 22 22 22 21 21 20 20 20 19 19 18 18 18 18 18 18 16 15 15 15 14 13 13 12 11 15 16 11 11 17 21 23 22 21 21 21 21 21 20 20 20 20 20 19 18 18 16 14 14 13 11 9 8 8 7 6 3 4 6 5 5 3 3 4 2 5 6 7 6 3 5 5 4 4 4 4 3 3 4 3 5
23 23 23 23 23 23 24 23 23 24 23 23 22 22 21 20 20 20 19 19 19 20 20 18 17 17 17 16 15 15 13 14 17 13 10 12 16 20 22 23 23 21 21 22 22 21 19 18 18 17 18 18 17 15 15 16 14 13 11 9 8 8 7 4 4 5 5 6 4 6 5 3 5 5 6 7 5 6 5 3 4 4 5 4 3 4 4 5
25 25 24 24 24 24 24 24 24 25 25 24 24 24 23 23 22 21 21 20 20 20 21 20 19 18 19 17 16 16 16 17 15 14 15 15 16 19 21 23 24 23 22 22 23 22 20 18 17 16 17 17 16 16 17 18 16 14 13 11 9 9 9 8 6 5 5 5 6 6 3 3 5 6 7 7 6 5 4 3 4 5 5 4 3 4 4 6
28 28 27 27 26 26 26 25 25 25 26 26 26 26 26 25 24 23 22 22 22 21 22 22 20 20 20 19 18 17 19 16 12 16 20 17 16 19 20 20 23 24 24 24 25 24 21 18 16 17 17 17 17 18 19 19 17 15 14 12 11 10 9 9 9 7 6 6 7 6 3 4 5 7 7 5 4 4 3 3 5 6 7 5 3 3 4 5
31 30 30 30 30 29 28 28 27 27 27 27 27 27 27 27 27 26 24 23 23 22 23 22 21 22 21 21 19 19 22 18 14 19 21 18 17 18 19 19 21 24 26 27 27 26 23 18 16 17 17 19 21 20 20 20 17 15 16 15 13 12 11 11 10 8 8 7 7 6 4 4 5 8 9 7 5 2 2 5 6 6 7 6 4 4 4 5
32 32 32 32 32 32 31 31 30 29 29 28 28 28 28 29 29 28 27 26 25 24 24 23 23 22 22 22 19 21 26 20 18 20 20 19 18 18 19 18 19 23 27 29 29 27 24 20 18 19 21 23 23 21 22 21 18 17 17 17 15 14 13 13 12 11 10 10 7 7 7 4 6 10 12 10 7 2 1 5 5 5 6 5 5 4 4 4
33 33 34 33 34 34 34 33 33 33 32 31 30 30 30 30 30 30 29 29 27 27 26 25 24 23 22 21 19 25 28 21 19 21 21 20 20 20 20 19 19 22 26 29 30 29 27 24 22 23 23 24 23 23 23 21 20 21 19 18 17 16 15 14 14 12 11 11 9 9 9 6 6 12 15 12 9 4 2 4 4 5 6 5 5 5 5 4
34 34 35 35 35 35 35 35 35 35 34 34 33 32 32 31 32 31 31 31 30 29 28 27 26 24 23 18 20 28 28 22 21 21 22 22 21 21 20 21 21 21 24 27 30 31 30 28 26 25 23 24 25 24 23 20 21 22 20 18 17 18 18 16 15 12 11 12 11 12 10 7 6 12 18 13 9 5 2 5 6 7 7 7 6 6 6 5
34 35 35 35 36 36 37 37 37 37 36 37 36 35 35 34 34 33 33 32 32 32 30 30 28 27 24 18 24 30 26 23 23 21 23 24 24 22 21 22 22 22 23 25 29 31 32 31 29 26 25 27 27 25 24 22 23 24 24 21 18 19 19 16 16 15 13 13 13 14 10 4 3 10 19 15 10 7 3 5 8 7 7 8 8 7 7 6
34 35 35 35 36 36 37 37 38 38 38 38 38 38 37 37 37 36 35 34 34 33 33 33 30 29 24 19 28 31 24 24 23 22 24 25 27 24 22 23 24 23 23 24 27 30 33 33 31 30 29 28 27 27 27 27 28 27 26 24 20 18 13 11 15 16 14 13 13 15 11 5 4 9 21 20 14 9 6 6 6 7 7 7 8 7 8 8
35 35 36 36 36 36 37 37 37 38 39 39 39 39 39 39 39 38 38 37 36 35 35 35 33 32 26 23 31 31 25 23 22 26 28 28 30 26 24 25 26 25 24 25 27 29 32 34 33 32 30 28 28 29 29 30 29 26 25 22 19 16 11 10 14 15 15 13 15 16 10 5 7 11 23 25 20 12 8 8 5 5 6 7 8 8 8 8
36 36 37 37 37 37 37 37 37 38 38 39 40 40 40 41 41 40 40 39 39 38 38 37 35 34 29 27 32 32 28 25 25 29 29 29 30 27 26 26 27 27 26 26 27 28 31 33 34 33 32 31 31 29 29 32 29 24 24 21 18 16 13 12 13 15 15 13 15 16 9 8 9 12 27 29 22 14 10 9 6 6 6 7 10 10 9 9
38 38 38 38 38 38 38 38 38 38 38 39 39 40 41 41 42 42 42 42 41 41 41 39 37 36 33 31 33 33 32 28 28 27 26 29 29 28 28 27 28 29 28 27 27 28 30 32 33 33 34 33 32 31 32 32 26 22 22 21 20 18 16 15 14 15 15 12 12 14 10 13 8 13 25 28 26 20 11 8 8 8 7 7 9 9 9 9
40 41 41 40 40 40 40 39 39 39 39 39 40 40 40 41 42 42 43 43 43 43 44 43 41 38 35 34 34 35 34 31 30 27 26 29 29 30 30 29 30 31 31 30 28 28 29 30 32 34 33 32 33 33 32 28 23 22 22 22 21 20 18 16 15 14 13 11 12 14 11 13 10 19 22 27 29 21 11 7 10 11 9 8 8 9 9 9
43 43 43 43 43 43 42 42 41 40 40 40 40 41 41 41 42 42 42 44 45 45 45 45 43 40 37 36 36 37 37 35 33 30 28 29 29 31 31 31 32 33 33 31 29 29 29 30 32 31 28 27 30 31 29 27 25 24 23 24 23 22 19 16 16 13 10 12 14 16 14 13 15 23 25 27 24 17 10 9 13 14 11 9 9 11 11 9
45 46 46 46 46 46 46 45 45 44 43 42 42 42 42 42 42 43 42 43 45 46 46 47 45 41 40 40 39 39 40 38 36 34 31 31 31 32 33 33 33 34 34 31 30 31 32 33 31 25 23 25 27 28 29 29 29 27 26 27 24 22 19 17 17 13 12 14 15 15 17 16 18 25 30 28 21 17 13 9 13 14 13 13 11 12 12 10
47 48 48 48 48 49 49 49 49 48 48 47 46 45 44 43 43 44 43 42 43 46 46 47 47 43 40 43 42 41 42 41 38 36 34 33 34 35 35 34 34 34 32 31 32 34 36 34 25 21 23 25 27 29 30 32 32 29 29 29 24 23 21 19 19 15 15 17 18 17 17 19 22 26 31 28 21 20 16 9 12 15 16 17 15 13 12 12
48 48 48 49 49 50 51 51 51 51 51 51 50 49 48 47 46 45 44 42 42 46 47 45 47 45 40 43 46 44 43 42 41 39 37 36 37 37 35 34 33 31 31 34 36 37 37 29 21 22 25 25 27 29 31 33 33 32 32 31 27 25 22 19 19 20 19 19 21 21 17 16 22 26 29 30 23 20 18 12 13 17 16 17 18 16 13 13
47 48 48 49 49 50 50 51 52 52 53 53 52 52 51 50 49 48 46 43 40 44 47 44 44 45 41 42 47 48 45 43 42 41 41 40 38 37 37 34 32 31 34 37 37 37 32 22 22 26 26 26 27 29 32 34 36 35 33 32 29 26 23 19 17 20 24 23 25 26 22 19 20 23 28 30 23 22 23 18 16 17 12 14 20 17 14 14
48 48 48 48 49 49 49 50 51 51 52 52 53 53 53 52 52 50 49 46 41 43 47 45 43 43 41 41 46 50 48 45 45 44 44 44 41 40 38 36 34 34 36 37 36 35 29 23 27 30 28 28 28 29 32 34 36 35 34 34 30 28 26 21 16 16 21 24 25 27 26 23 19 20 25 26 22 23 27 22 19 17 10 13 18 16 15 15
48 48 49 48 48 49 49 49 50 51 52 52 53 53 54 54 53 53 52 48 46 45 45 46 46 44 42 43 48 52 50 47 46 46 47 45 44 43 41 39 37 36 37 36 36 35 30 28 32 33 30 30 29 30 31 32 34 35 35 35 31 29 28 24 24 19 19 21 24 25 25 25 21 21 25 28 26 27 30 27 23 17 10 12 14 15 17 15
48 48 48 48 47 48 49 49 50 51 51 52 53 53 54 55 55 55 53 49 49 49 47 48 49 48 46 46 47 49 50 49 47 47 48 47 47 46 45 43 40 38 38 36 37 36 33 33 36 35 32 31 32 32 31 31 33 34 34 33 33 32 31 28 32 30 26 23 24 27 27 27 25 24 26 28 30 31 32 31 27 17 10 11 13 14 17 15
46 46 47 47 47 46 46 46 47 49 49 50 52 53 54 55 55 55 53 50 49 49 50 51 50 48 48 47 47 49 50 49 46 47 49 49 48 48 48 46 43 40 39 39 40 38 34 35 38 36 33 33 34 32 29 29 32 32 31 32 35 35 35 33 36 38 34 28 26 29 30 29 29 26 24 25 29 33 35 33 28 18 12 12 12 13 15 15
42 42 42 43 44 44 43 42 43 44 45 46 48 50 52 54 55 54 52 47 42 42 46 50 51 51 51 49 49 49 49 48 46 45 48 50 49 49 49 49 46 43 42 42 40 36 33 35 37 36 35 35 33 29 28 30 32 29 30 34 37 37 37 36 37 39 37 32 29 27 31 34 33 29 25 24 27 33 39 36 28 21 17 15 13 14 15 17
38 38 37 38 40 41 41 40 39 38 39 41 43 45 47 50 51 51 49 41 34 38 44 48 51 53 53 53 51 49 48 49 48 47 49 52 52 51 50 49 48 46 44 44 42 38 36 36 37 38 37 36 32 29 30 33 32 28 29 35 37 38 38 37 39 38 38 38 37 32 31 36 35 32 28 26 25 29 36 36 30 23 20 18 14 14 16 19
36 36 35 35 36 38 38 38 37 36 36 37 38 39 42 44 45 45 44 36 29 35 43 47 51 51 53 56 56 52 49 49 50 50 50 52 54 52 51 50 49 49 48 47 47 43 40 38 39 40 39 36 34 33 33 34 32 30 31 35 36 37 38 39 40 38 41 45 43 40 38 35 34 33 30 29 25 23 28 32 33 27 18 14 13 12 19 22
35 36 36 36 36 36 36 36 35 35 35 36 36 37 39 41 42 40 37 32 28 31 39 45 49 51 53 56 57 57 54 51 50 50 49 51 54 54 53 52 53 53 52 51 50 47 44 43 42 41 40 38 38 37 37 35 33 33 33 34 36 37 38 39 40 41 45 48 42 38 41 40 39 34 28 27 25 24 27 29 29 26 19 15 12 11 18 22
36 37 39 38 38 37 35 34 34 35 36 37 36 37 37 39 40 37 29 28 30 33 39 47 50 52 54 53 55 57 57 54 52 51 50 49 53 56 56 55 54 55 55 54 53 50 47 44 43 43 41 41 40 40 40 38 36 35 35 34 35 38 39 40 43 45 47 48 43 38 40 46 46 38 28 24 27 29 27 26 24 22 20 17 12 11 14 16
37 38 40 40 38 37 34 33 33 35 37 38 37 37 37 38 38 35 28 25 31 34 41 49 51 52 54 51 50 54 56 53 50 50 51 50 50 54 56 54 53 54 54 53 53 52 48 45 45 44 43 42 42 43 43 41 38 37 36 34 35 38 40 42 43 44 45 45 43 41 41 45 45 38 32 32 37 35 24 24 28 24 21 19 14 14 14 14
38 39 38 38 36 34 33 33 35 37 38 37 37 37 37 37 37 36 32 28 27 33 40 48 51 49 50 48 43 45 50 50 46 42 43 47 50 53 55 55 53 53 54 53 53 53 51 49 47 45 45 44 43 43 43 40 38 37 35 35 36 37 37 38 38 40 42 42 42 43 42 39 37 35 34 36 40 35 25 24 31 30 26 25 24 23 20 18
39 37 34 32 32 32 33 35 37 39 38 37 36 36 36 36 37 37 34 30 25 30 38 44 50 47 44 43 39 35 40 46 47 45 41 41 45 50 54 54 53 53 54 54 53 54 54 51 46 45 45 43 41 42 42 41 39 38 38 38 39 37 35 36 35 36 38 40 41 41 37 32 33 34 36 38 38 34 30 31 35 34 29 27 30 31 26 20
38 35 32 30 31 33 35 36 37 37 36 36 35 35 34 34 36 37 35 33 29 25 33 41 50 50 43 43 45 42 42 44 45 47 47 44 42 43 47 52 53 52 53 55 54 53 53 52 48 46 46 44 42 42 43 43 41 39 42 42 38 36 35 36 37 36 38 40 38 36 30 29 33 34 34 35 33 30 30 34 38 36 31 28 27 27 25 19
38 35 33 33 33 35 36 36 36 36 35 35 35 34 33 33 34 35 34 36 35 25 29 39 47 52 47 46 49 50 48 46 45 46 47 46 42 38 37 40 43 46 48 50 53 53 52 52 50 48 47 45 44 43 44 44 41 41 43 42 38 38 36 36 38 38 39 39 34 29 27 28 31 30 27 27 27 25 24 28 36 38 35 30 24 21 20 18
39 38 37 37 35 35 37 36 36 35 34 35 35 33 32 32 32 32 33 36 37 30 28 35 44 51 52 49 50 51 49 47 47 46 42 43 43 40 37 36 37 43 45 45 48 50 51 51 48 48 48 46 43 44 45 45 43 43 43 41 40 40 39 39 41 39 38 36 31 28 28 29 29 25 21 21 22 22 20 22 31 38 37 31 23 19 19 20
41 41 42 40 36 34 35 35 35 36 35 34 33 31 30 31 30 30 32 34 34 33 29 31 40 49 54 53 50 50 51 48 47 48 45 47 48 44 43 43 41 43 47 49 49 50 52 52 50 49 47 44 44 46 48 48 46 45 44 42 40 40 40 41 41 37 35 34 31 28 28 28 27 22 18 18 18 19 20 21 28 33 34 29 21 19 20 20
44 44 44 42 37 34 34 35 35 37 36 34 32 31 30 30 28 28 31 32 31 31 30 30 35 43 52 54 49 47 52 51 50 51 50 52 55 51 50 49 44 43 48 55 57 55 54 54 53 49 38 35 43 50 51 49 48 48 48 45 42 40 38 39 40 37 34 33 31 28 26 24 22 18 15 16 15 15 15 19 27 31 29 26 22 21 21 18
44 44 44 41 36 33 34 36 37 37 36 33 32 31 29 29 28 26 27 30 28 27 28 28 31 38 47 52 50 48 51 54 53 53 50 51 57 57 54 52 50 47 48 54 58 58 57 56 55 47 36 31 41 48 50 49 48 47 48 47 45 42 39 38 40 38 34 34 32 28 24 19 16 15 15 17 16 14 14 16 24 29 27 25 24 23 22 18
45 44 43 40 36 33 34 36 36 36 34 31 30 29 26 27 27 24 24 27 26 24 24 24 26 34 41 46 50 50 51 56 57 54 46 46 55 59 57 56 55 53 52 54 58 61 61 60 55 47 41 36 36 37 42 46 47 45 44 46 46 44 42 40 39 36 33 34 33 30 24 15 12 14 14 15 16 16 19 18 21 26 26 25 24 23 21 18
45 44 41 38 36 36 37 37 35 33 31 28 28 28 25 25 25 23 22 24 24 22 22 22 21 27 34 40 47 52 54 58 59 55 45 42 52 59 59 60 60 59 58 58 59 64 64 60 57 48 42 40 34 30 34 35 38 43 44 44 45 46 45 42 38 33 33 35 33 33 31 21 12 10 10 13 18 21 21 19 20 25 26 24 22 21 21 19
43 42 41 39 38 38 39 38 34 30 28 26 25 25 24 23 23 21 21 22 22 22 21 21 21 22 27 33 41 50 56 58 60 59 50 43 50 59 61 63 64 62 61 59 59 64 63 60 58 51 44 41 36 33 36 35 35 41 46 46 45 46 45 41 38 34 34 36 34 34 35 26 16 12 14 19 22 23 22 18 20 25 25 22 21 21 20 20
42 41 41 41 40 39 37 35 32 28 26 24 22 22 22 21 20 19 19 20 20 21 20 19 21 20 21 26 35 46 55 59 61 63 54 44 48 59 62 64 66 65 64 62 61 65 65 62 61 56 51 46 41 40 43 42 39 41 45 46 45 45 43 39 38 38 36 36 34 34 35 31 24 21 21 23 21 23 25 20 18 23 24 21 20 21 21 20
42 40 39 39 39 38 35 32 29 25 24 22 20 20 19 18 18 18 18 19 19 19 19 19 20 19 17 21 31 42 51 56 61 64 56 46 48 59 62 63 67 68 67 64 63 67 68 65 64 62 56 51 47 47 45 42 41 41 42 42 43 45 43 36 37 40 38 35 33 33 32 33 32 29 26 25 23 25 29 22 15 20 25 22 20 21 21 20
40 40 40 38 37 36 34 30 28 24 22 21 20 18 17 15 16 17 17 18 19 19 19 18 18 17 18 20 27 37 47 51 56 63 59 48 46 56 61 62 67 70 69 67 66 68 69 67 67 67 61 55 54 49 45 47 45 43 43 40 41 45 45 41 39 40 38 35 32 32 31 31 34 34 32 30 28 29 30 25 18 20 25 24 21 20 19 21
39 39 41 40 38 36 32 29 26 24 21 20 19 17 15 14 16 17 17 18 19 19 19 18 16 17 18 21 24 32 41 44 50 60 63 52 46 52 58 61 66 69 70 69 69 69 68 68 70 71 65 60 58 48 43 51 52 44 43 39 38 43 47 47 44 38 37 36 32 29 30 30 31 33 34 34 33 29 27 25 21 22 26 26 23 22 21 21
39 39 39 40 40 37 33 30 27 24 21 19 17 15 13 14 16 17 17 19 19 19 19 17 16 16 19 22 24 28 34 39 46 59 66 58 48 47 53 58 62 67 70 70 71 70 68 68 71 73 67 62 58 48 44 52 55 49 44 38 36 40 44 47 45 37 32 33 31 27 26 28 30 32 33 34 32 28 25 24 22 21 25 26 25 25 24 23
39 39 37 37 37 35 32 29 26 23 20 18 17 16 14 13 15 16 16 18 18 17 18 18 15 15 17 20 24 28 33 37 45 57 63 61 53 46 49 55 58 64 69 69 71 71 69 68 71 74 70 62 54 46 46 52 54 49 42 34 35 39 39 43 46 40 31 29 29 27 24 27 32 35 35 33 29 27 27 27 24 22 24 25 25 25 26 25
37 38 37 35 34 32 30 26 22 20 19 18 18 18 16 14 16 18 16 16 17 15 15 16 14 14 14 16 21 28 33 37 41 49 57 62 58 49 47 51 55 62 66 67 70 72 70 68 71 74 72 64 54 47 48 53 52 48 41 35 37 41 39 40 44 44 36 28 28 31 28 30 34 36 36 33 27 26 28 29 27 25 23 22 22 23 25 25
35 36 36 34 33 32 30 26 21 19 19 17 16 17 17 17 18 20 17 15 15 14 14 14 13 13 13 14 17 22 29 36 39 41 50 60 62 55 47 47 55 62 62 64 69 71 70 68 69 74 74 68 58 51 51 54 51 46 43 39 41 44 40 37 40 43 39 29 29 34 33 30 34 35 34 32 29 27 29 32 31 27 23 21 21 21 23 24
Wind_Direction
297 296 295 293 292 291 290 289 288 288 287 285 283 281 280 279 277 277 278 277 276 273 272 273 272 269 264 260 252 244 239 236 235 234 234 232 229 235 234 231 235 235 235 239 237 232 230 228 230 233 235 235 232 230 228 224 219 211 212 216 215 221 229 248 266 270 286 281 292 347 347 353 347 341 342 346 351 357 45 67 29 4 313 289 269 242 209 204
298 297 295 293 291 290 288 287 286 286 285 285 283 281 280 278 275 273 273 272 272 271 269 269 269 268 262 258 254 248 239 233 233 235 237 234 230 237 237 234 237 238 237 240 240 237 234 231 232 233 232 235 236 234 233 231 230 225 216 216 220 208 211 232 223 205 168 48 342 34 22 9 339 333 335 339 350 356 23 44 36 309 280 279 278 277 243 222
299 298 296 295 293 291 289 287 286 285 284 283 282 281 280 277 275 271 269 268 267 267 267 266 265 264 262 257 253 251 242 233 235 239 240 237 234 236 238 237 236 237 237 238 239 238 236 235 235 234 233 236 238 237 236 235 236 234 225 222 227 207 200 224 219 198 169 63 28 135 351 352 321 327 329 335 356 9 22 23 18 347 313 306 289 291 270 235
297 297 296 295 294 292 290 289 288 286 284 282 281 280 279 277 275 271 268 266 265 264 263 263 261 259 259 256 253 250 245 235 238 241 235 229 233 231 232 236 235 235 236 237 239 239 238 238 239 238 238 238 239 241 242 240 238 238 233 225 231 214 201 227 230 212 208 241 222 202 293 334 314 324 332 330 1 14 7 4 352 348 340 327 300 295 274 247
295 294 294 293 292 291 290 289 288 287 285 283 281 279 278 277 275 273 269 266 264 263 260 258 257 256 256 254 252 249 245 239 241 244 237 227 231 230 229 232 233 234 235 236 240 242 241 241 241 241 242 242 242 245 244 241 240 238 234 225 229 218 201 228 218 202 228 250 249 261 263 342 310 315 333 317 359 8 346 353 333 334 350 341 314 300 274 252
292 291 291 290 289 289 288 287 287 286 285 284 282 280 278 277 275 274 271 268 265 263 260 256 253 253 254 252 250 248 244 242 245 249 245 231 232 233 230 230 231 233 235 237 240 242 244 243 243 244 244 245 244 242 240 240 238 235 236 229 227 224 210 217 218 201 225 250 265 267 266 320 296 304 325 310 347 2 348 354 311 316 352 359 332 297 275 255
289 288 288 287 286 286 285 285 284 283 282 282 281 280 279 277 275 274 272 271 268 264 262 258 253 251 251 250 249 249 245 241 246 252 244 231 229 234 232 229 230 232 234 236 239 242 243 243 243 242 241 242 242 235 235 238 235 230 231 227 223 229 220 212 220 230 243 261 267 258 258 292 291 315 320 303 325 342 355 351 297 307 337 350 334 293 276 261
287 287 286 285 284 283 282 282 281 280 279 279 279 278 278 277 276 274 272 271 269 267 264 260 255 251 250 249 247 248 247 239 238 246 244 235 231 237 237 230 227 228 231 234 236 238 239 238 237 237 236 237 236 230 231 235 232 225 225 224 218 225 229 220 218 236 256 258 258 252 252 287 297 308 303 280 288 311 355 330 296 306 318 320 316 291 272 258
285 285 284 283 282 281 280 280 279 278 277 276 276 275 275 276 275 274 272 270 269 267 265 263 259 254 250 248 246 249 248 235 225 237 242 240 236 239 242 237 228 225 227 231 235 237 237 235 233 233 230 230 230 227 230 233 227 219 221 223 218 219 225 224 215 218 240 239 246 256 245 274 286 285 293 285 267 282 0 320 300 300 308 307 300 286 273 256
283 283 282 281 280 279 278 277 276 275 275 274 273 273 272 272 273 272 272 271 269 267 266 264 262 258 253 249 246 249 247 234 227 237 241 242 238 236 239 238 232 226 226 229 233 237 237 234 231 230 226 225 227 226 230 231 225 219 219 222 220 218 222 226 216 205 223 226 224 244 234 240 272 277 286 283 270 256 331 311 296 291 303 303 296 297 289 268
282 281 280 279 278 277 276 275 274 273 272 271 271 270 270 269 269 269 269 269 268 267 266 265 262 260 256 252 248 247 245 236 232 238 240 241 240 237 237 236 234 230 228 228 230 234 235 232 228 228 225 225 226 226 230 229 226 223 218 220 221 219 222 226 223 209 213 216 213 233 227 207 247 273 275 264 261 259 266 292 282 279 297 305 299 296 294 286
283 282 280 279 277 276 275 274 273 272 271 270 269 268 267 267 267 267 266 266 266 265 265 264 263 260 258 256 251 246 244 239 233 236 240 239 238 237 237 236 235 233 230 229 230 231 233 232 229 228 225 225 224 225 230 228 229 231 225 222 217 218 221 222 227 220 210 211 213 222 222 201 213 272 279 258 243 248 235 283 290 278 283 298 298 291 293 292
287 284 282 281 279 277 275 274 273 272 270 269 268 266 265 265 265 264 264 264 263 263 263 263 262 261 258 255 253 249 245 241 234 234 238 239 237 234 235 237 234 233 231 229 230 230 231 231 230 229 226 225 223 222 224 223 226 231 233 231 221 219 222 222 226 223 215 214 214 218 219 205 193 267 277 265 245 238 229 284 302 291 282 300 304 300 299 292
291 289 287 285 282 280 278 276 274 272 270 269 267 266 264 263 263 262 262 262 261 261 260 260 260 259 257 251 253 254 249 244 238 236 237 237 237 231 229 235 234 232 231 229 229 230 231 231 230 228 228 226 224 222 221 221 223 224 229 233 228 225 225 224 220 215 216 215 217 222 213 164 131 254 271 281 278 255 251 280 294 284 285 306 311 308 306 301
294 292 290 289 287 284 282 279 277 274 272 270 268 266 264 263 262 261 260 260 260 259 258 258 257 257 255 246 252 257 253 247 240 237 235 234 236 232 226 231 234 232 229 228 228 229 230 232 231 229 230 229 227 226 223 226 228 226 228 231 230 229 232 232 218 211 214 216 221 223 214 159 141 220 254 274 280 269 271 281 264 258 277 302 309 310 311 312
295 293 292 290 289 287 285 283 280 278 275 273 270 267 264 262 261 260 259 258 258 258 257 257 255 255 251 244 250 256 253 246 240 237 236 236 237 234 228 228 232 232 230 228 226 228 229 231 233 231 230 229 230 229 227 230 232 229 231 233 229 223 225 232 226 220 216 217 229 227 201 145 140 210 243 259 271 275 282 285 271 258 271 295 306 309 311 312
294 293 292 290 289 287 285 284 282 280 278 276 273 270 267 264 261 259 258 257 256 256 256 255 254 253 249 245 246 251 252 249 245 241 240 241 239 236 231 227 229 233 232 230 227 226 227 230 232 232 230 230 231 230 230 233 234 232 233 234 231 221 216 219 225 230 223 213 230 241 199 146 159 232 243 256 269 271 276 290 286 280 282 293 304 308 308 308
294 293 291 290 288 286 285 283 282 280 279 277 275 272 270 267 263 260 258 257 255 255 254 253 253 252 250 247 245 248 251 249 247 243 240 242 240 237 234 228 228 231 231 231 229 228 227 228 229 231 231 231 231 232 235 238 236 234 235 236 234 227 218 213 218 224 231 221 204 226 210 150 198 242 244 256 262 260 261 283 289 287 287 288 295 300 300 305
293 292 290 289 287 286 284 282 281 280 278 276 275 273 271 269 266 262 259 258 256 254 254 252 251 250 249 248 245 245 246 245 245 242 239 241 241 238 235 229 227 229 230 230 230 230 229 228 228 229 232 234 234 235 238 240 236 232 234 236 234 230 224 217 218 202 207 230 205 214 218 169 203 239 246 249 249 251 260 285 293 289 286 289 291 293 296 305
293 292 290 289 287 285 283 282 281 280 278 276 274 273 271 269 268 264 261 259 257 255 254 253 251 248 248 247 244 243 244 243 243 242 238 238 240 238 235 231 228 228 229 230 230 232 232 231 230 230 234 237 237 237 238 237 234 229 229 233 230 229 226 217 219 193 179 221 224 229 225 192 207 237 246 246 246 260 273 292 298 295 299 301 290 288 296 303
293 292 290 288 286 285 283 281 280 279 278 277 275 273 271 269 268 265 262 260 259 256 253 253 252 248 246 248 246 242 243 243 242 241 239 238 239 239 237 234 231 230 229 230 230 231 231 231 230 231 231 231 232 233 234 236 234 229 228 231 229 225 221 215 213 189 179 216 235 245 231 205 213 232 246 254 254 261 268 276 283 288 299 300 286 281 290 294
293 292 290 288 286 284 282 281 279 278 277 276 275 273 271 269 267 265 263 260 260 259 255 252 253 251 246 247 247 242 241 241 240 239 238 239 240 241 241 238 236 233 230 230 229 230 231 228 226 230 228 225 225 225 228 232 232 229 228 230 228 222 213 207 202 182 183 218 235 237 239 231 224 228 245 258 262 265 266 262 264 272 286 293 280 274 282 288
295 293 292 290 288 286 284 282 279 277 275 274 273 272 270 269 268 266 264 260 257 259 258 254 252 251 248 247 248 244 240 239 239 238 237 237 237 240 241 240 238 235 232 231 230 232 231 226 226 230 228 224 222 221 222 227 228 226 225 227 228 225 214 198 194 184 182 207 231 235 249 254 230 225 241 253 264 274 270 262 257 258 269 280 274 274 282 285
298 296 295 294 291 289 287 285 283 279 276 274 272 270 268 267 266 266 264 263 257 254 257 257 253 250 248 247 247 244 239 236 236 236 235 235 234 236 238 238 237 235 234 233 233 233 228 222 226 229 227 225 223 222 221 224 226 224 222 223 223 225 222 200 190 201 191 201 224 235 251 253 227 225 244 253 260 269 271 269 264 258 256 262 266 277 283 280
301 299 298 297 296 294 291 290 288 284 281 278 274 271 268 266 264 264 263 263 260 254 253 255 253 249 245 243 244 244 241 237 235 235 234 234 233 233 235 235 234 234 235 234 234 233 225 220 225 227 225 224 223 223 223 223 226 224 220 220 218 219 225 203 181 200 215 217 223 225 236 245 237 231 242 256 262 265 270 273 270 261 248 245 255 272 274 271
305 303 302 300 300 298 296 295 294 291 288 285 280 276 272 268 264 262 261 261 258 254 251 249 248 248 244 242 244 245 242 238 235 235 235 233 232 231 232 233 233 232 234 234 233 230 223 220 224 226 225 224 224 222 222 222 224 225 220 218 217 214 219 203 178 187 210 220 226 228 228 234 241 231 225 239 250 255 260 264 265 258 247 247 247 265 271 267
308 307 305 303 302 302 301 300 299 297 295 292 287 283 278 272 267 263 261 261 258 254 250 246 243 243 242 239 240 242 241 238 236 236 235 233 231 231 231 232 232 231 231 232 232 228 222 221 223 224 224 225 226 222 222 223 224 225 219 216 216 214 215 205 186 186 196 203 217 236 241 238 243 241 226 229 238 244 249 252 256 256 257 254 239 253 270 266
310 309 309 308 306 305 305 305 304 303 302 299 295 290 286 279 273 266 262 263 263 253 247 244 240 238 238 236 237 239 240 238 236 235 235 234 231 230 230 231 231 230 229 232 233 229 225 224 225 225 225 226 227 223 221 225 225 222 218 215 214 214 216 211 201 191 189 196 205 224 244 246 248 250 243 241 244 246 247 249 254 259 263 262 249 247 255 260
311 311 311 311 311 309 309 308 308 308 307 304 301 298 294 287 278 272 266 265 262 250 243 241 240 239 237 235 233 233 235 236 233 231 231 232 230 228 228 228 230 229 228 230 232 228 224 224 225 226 225 225 226 222 220 225 226 221 218 218 214 213 214 214 215 202 188 196 199 200 223 241 251 253 247 247 250 249 246 244 248 256 264 269 264 245 241 252
313 313 312 313 313 313 312 311 310 309 309 310 311 310 307 300 291 283 274 267 255 244 240 238 237 236 235 234 232 229 229 231 231 229 228 229 228 227 225 224 227 228 226 227 228 226 222 221 222 223 223 223 222 222 222 225 225 221 220 219 214 212 212 213 218 212 202 205 201 193 202 223 240 246 247 250 252 252 251 248 247 249 256 267 267 242 235 243
314 314 314 313 313 313 312 310 309 312 316 317 318 317 317 313 307 299 287 272 250 234 233 233 231 232 232 232 233 231 227 225 228 228 227 228 228 226 223 221 221 223 224 224 225 225 221 219 220 221 220 220 220 220 222 223 222 219 220 218 214 212 213 214 215 216 220 223 217 204 200 209 219 224 236 252 254 251 256 259 252 243 240 251 258 240 233 237
316 316 316 314 313 313 311 309 309 313 316 315 314 315 317 320 317 313 302 275 247 230 230 232 229 228 228 228 229 230 226 222 223 225 225 225 227 227 224 221 220 221 222 222 223 223 221 220 220 220 218 217 218 219 220 220 218 217 218 216 215 214 215 216 215 217 226 231 230 221 209 209 215 215 216 232 242 242 252 268 265 248 240 241 229 207 219 236
318 318 317 314 312 311 309 309 309 312 312 310 310 310 313 317 319 320 317 291 265 248 237 230 225 223 223 221 223 227 224 217 215 220 222 222 224 226 225 222 221 221 222 224 225 224 221 220 221 221 220 218 217 218 220 219 217 218 219 218 218 218 219 220 220 221 227 231 231 228 222 221 227 230 221 219 228 231 239 268 270 259 249 244 230 212 220 245
320 319 316 313 313 311 310 309 308 308 308 307 308 308 309 311 316 321 326 321 294 265 243 228 218 215 216 215 216 222 219 209 202 206 214 219 220 223 225 223 221 220 221 223 225 224 221 219 220 221 221 220 218 219 222 221 220 220 222 224 224 224 226 227 226 227 229 232 232 228 229 234 239 243 235 229 234 229 221 245 258 255 251 247 242 238 240 249
320 318 315 314 313 311 309 307 306 306 306 306 307 308 307 308 312 316 321 329 312 271 251 233 216 208 210 207 200 206 209 203 198 196 200 211 216 220 223 223 220 220 221 222 222 224 223 219 219 222 223 222 220 221 223 222 220 220 221 224 226 226 228 230 231 233 233 234 235 233 236 241 244 248 243 239 245 241 229 237 248 249 247 244 241 242 244 246
321 318 315 313 312 309 307 306 306 305 305 306 307 308 308 307 310 313 313 323 321 282 254 239 218 205 203 201 195 198 203 199 197 196 196 202 209 215 222 225 222 219 221 223 221 222 223 218 215 220 222 222 221 220 222 222 219 218 221 224 227 227 227 229 229 232 234 234 236 240 245 245 244 248 247 245 249 248 240 240 245 247 244 242 242 237 231 234
323 320 315 312 310 308 307 306 305 304 305 307 308 308 307 306 308 311 310 317 322 295 252 238 224 208 199 198 198 200 201 197 195 195 194 195 199 205 214 222 223 221 220 223 223 221 221 219 218 219 219 220 222 221 221 222 219 219 223 224 225 225 224 225 226 228 232 235 237 240 244 245 244 243 244 249 252 250 242 236 238 246 248 247 248 237 223 225
326 323 318 315 313 309 306 306 306 307 309 309 309 309 309 309 310 312 312 315 317 301 261 239 229 217 205 199 198 198 196 192 190 189 186 188 193 198 204 207 212 215 214 215 220 219 217 219 220 219 217 218 222 224 222 220 218 219 224 227 225 224 223 222 223 226 232 237 238 238 239 243 247 243 238 241 244 245 243 227 225 237 246 246 246 240 225 216
327 326 322 319 319 314 310 311 311 310 311 311 310 311 312 314 313 312 313 314 310 298 273 246 234 227 217 206 197 195 193 187 182 180 180 187 190 194 200 204 207 211 210 208 211 213 213 217 217 214 216 218 219 223 222 219 217 216 220 224 225 225 226 227 228 228 231 235 237 239 241 243 247 249 243 234 229 233 238 228 222 232 242 242 237 234 229 220
326 326 324 321 321 318 315 316 315 312 313 312 310 313 313 313 314 312 312 311 304 293 278 256 242 237 229 214 202 200 195 186 179 179 183 189 191 191 195 200 205 208 209 207 207 208 209 213 214 209 209 220 221 220 220 219 217 216 216 220 222 222 222 226 231 230 229 233 235 236 241 246 251 256 258 250 235 229 233 228 225 231 240 240 234 230 229 221
326 325 323 321 320 319 318 317 315 312 312 311 310 314 315 311 313 313 308 306 302 290 280 267 251 246 237 219 212 213 199 186 184 184 186 190 191 191 191 193 198 202 206 207 206 207 206 207 210 201 190 210 223 221 221 222 222 220 220 222 223 223 222 223 227 228 226 230 232 233 236 242 250 248 242 246 245 234 229 227 228 233 236 237 236 231 227 219
325 324 322 319 318 317 317 315 313 310 308 308 309 311 312 307 308 312 306 301 298 290 287 281 262 252 244 225 220 219 201 188 190 190 189 192 190 187 186 188 192 196 202 205 204 206 206 204 206 197 186 198 216 224 226 225 225 224 224 226 227 227 226 225 226 225 223 225 227 230 228 222 236 245 234 239 251 244 234 231 232 236 237 237 238 235 231 226
326 327 325 322 319 317 315 314 312 307 304 304 305 306 306 302 303 309 305 298 295 293 293 292 276 259 250 235 225 219 204 192 192 195 196 195 188 183 181 185 189 193 199 203 204 205 204 203 203 196 190 194 200 219 233 231 228 227 224 224 226 229 230 229 228 226 225 225 221 223 223 210 210 242 230 223 238 244 240 232 228 235 239 237 238 237 237 232
329 331 329 325 322 319 316 314 311 305 301 300 300 300 299 297 301 304 301 296 295 298 298 295 285 269 257 243 226 219 213 202 198 203 202 191 184 182 181 184 187 191 196 201 204 204 202 201 199 192 187 187 184 199 222 230 229 224 222 221 221 224 228 230 228 224 226 227 222 220 221 207 190 202 212 217 231 245 248 235 225 232 238 237 236 237 239 234
332 333 331 327 326 322 317 315 311 305 300 297 295 294 291 293 298 300 298 294 293 298 297 294 288 276 264 249 226 220 223 217 213 212 203 186 182 183 182 185 187 189 194 198 202 203 200 198 196 190 184 182 178 185 205 222 228 222 218 219 217 215 218 225 227 223 223 227 226 222 219 210 196 191 203 219 231 246 253 245 229 232 236 238 236 232 233 234
337 337 337 334 332 327 321 317 312 305 299 295 291 286 284 289 297 299 298 292 292 297 294 292 288 275 264 250 228 225 230 229 227 220 201 183 182 183 183 186 187 188 192 195 200 202 200 196 194 190 184 180 179 183 194 211 226 230 223 215 213 211 208 215 225 225 222 223 226 227 222 215 211 203 202 214 224 236 246 248 238 232 232 234 235 231 230 237
345 346 345 343 339 334 328 321 313 305 296 291 289 283 280 287 295 298 297 290 291 297 292 290 288 273 260 249 234 230 233 237 237 224 202 185 184 184 184 187 187 188 191 194 198 202 199 195 192 188 184 179 179 184 192 197 208 228 231 216 210 209 204 207 219 224 223 221 222 228 226 219 218 215 211 216 224 234 244 250 246 233 227 228 235 237 234 237
355 356 355 352 350 345 338 331 320 307 295 291 291 286 282 289 296 297 298 294 292 293 290 288 286 275 262 253 243 236 237 244 244 226 207 193 186 185 186 187 187 188 190 193 198 201 199 195 191 188 184 180 179 182 193 195 194 210 226 220 211 209 206 207 213 218 223 222 217 222 229 225 221 221 219 220 225 232 243 249 245 233 225 221 225 232 235 238
360 1 1 358 358 357 351 344 331 314 302 297 297 292 288 295 300 298 298 299 295 288 287 287 282 276 266 257 252 244 244 251 243 226 214 203 191 188 189 188 187 189 190 193 197 199 199 195 191 189 185 180 179 181 190 196 196 202 214 217 210 206 207 208 206 207 218 221 214 211 222 226 225 225 225 224 224 226 235 242 237 230 227 221 217 222 229 236
358 358 358 358 0 1 359 354 341 326 318 312 303 295 293 302 309 304 297 297 295 286 284 285 283 281 271 264 259 250 252 255 241 227 222 211 198 193 191 188 189 190 190 193 196 197 199 196 192 190 185 179 180 184 187 193 198 201 204 207 201 199 206 209 203 199 205 215 211 203 209 221 225 228 228 225 222 220 225 233 233 228 227 224 220 220 224 232
354 354 354 356 359 1 3 4 354 342 337 327 309 297 294 300 309 309 302 296 294 287 283 282 282 283 278 272 265 254 252 254 242 232 230 219 206 199 192 187 190 191 191 193 194 196 197 196 193 190 185 180 183 185 186 191 196 197 197 196 191 191 201 210 206 197 195 206 209 198 200 216 224 229 230 227 222 219 220 227 229 228 228 228 227 228 228 232
353 354 353 354 357 359 4 9 6 355 347 335 322 310 301 298 303 307 305 300 295 288 283 283 282 283 280 275 270 258 251 249 244 239 235 226 214 204 194 188 189 191 192 192 193 195 196 195 194 191 185 184 185 183 184 190 194 195 194 192 186 185 193 207 210 199 189 199 212 202 197 211 222 227 232 230 224 218 216 221 225 227 227 225 225 231 233 234